Location: Albany
(42.6526°N, 73.7562°W)
Time: 11:23:08
(UTC+00:00)

SeaSat 1 - Pass Details

Date: 19 November 2019
Orbit: 745 x 747 km, 108.0° (Epoch: 14 December)

Event Time Altitude Azimuth Distance (km) Brightness Sun altitude
Rises 23:37:34 0° 167° (SSE) 3,171 5.6 -23.4°
Reaches altitude 10° 23:39:53 10° 172° (S) 2,252 4.9 -23.9°
Maximum altitude 23:44:37 49° 247° (WSW) 953 3.3 -24.7°
Drops below altitude 10° 23:49:25 10° 323° (NW) 2,269 5.3 -25.6°
Sets 23:51:45 0° 329° (NNW) 3,197 6.1 -26.0°
